Weather History for Redmond, OR

Change the Weather History Date:

Thursday, February 6, 2014

  Actual Average Record
Temperature  
Mean Temperature 4 °F 34 °F  
Max Temperature 11 °F 45 °F 66 °F (1987)
Min Temperature -4 °F 24 °F -13 °F (1989)
Degree Days  
Heating Degree Days 61 31  
Month to date heating degree days 278 186  
Since 1 July heating degree days 4108 4026  
Cooling Degree Days 0 0  
Month to date cooling degree days 0 0  
Year to date cooling degree days 0 0  
Moisture  
Dew Point 0 °F    
Average Humidity 80    
Maximum Humidity 86    
Minimum Humidity 73    
Precipitation  
Precipitation 0.11 in 0.03 in 0.15 in (1994)
Month to date precipitation 0.15 0.15  
Year to date precipitation 0.67 1.12  
Sea Level Pressure  
Sea Level Pressure 29.96 in    
Wind  
Wind Speed 3 mph (NW)    
Max Wind Speed 9 mph    
Max Gust Speed 11 mph    
Visibility 4 miles    
Events Fog , Snow    
T = Trace of Precipitation, MM = Missing Value Source: NWS Daily Summary

Daily Weather History Graph

Daily Weather History Graph

Search for Another Location

Airport:

Trip Planner

Search our weather history database for the weather conditions in past years. The results will help you decide how hot, cold, wet, or windy it might be!

Date:

Astronomy

Feb. 06, 2014 Rise Set
Actual Time 7:16 AM PST 5:21 PM PST
Civil Twilight 6:46 AM PST 5:51 PM PST
Nautical Twilight 6:11 AM PST 6:26 PM PST
Astronomical Twilight 5:37 AM PST 7:00 PM PST
Moon 10:56 AM PST (2/6) 12:37 AM PST (2/6)
Length of Visible Light 11h 05m
Length of Day
10h 05m
Waxing Crescent, 50% of the Moon is Illuminated
Feb 6
Waxing Crescent
Feb 14
Full
Feb 22
Last Quarter
Mar 1
New
Mar 8
First Quarter

Hourly Weather History & Observations

Time (PST) Temp. Windchill Dew Point Humidity Pressure Visibility Wind Dir Wind Speed Gust Speed Precip Events Conditions
12:56 AM 3.9 °F -5.3 °F -0.9 °F 80% 30.31 in 5.0 mi WNW 4.6 mph - 0.00 in Snow Light Snow
1:07 AM 3.9 °F -3.4 °F -0.9 °F 80% 30.13 in 3.0 mi NW 3.5 mph - 0.00 in Snow Light Snow
1:41 AM 3.9 °F -3.4 °F -0.9 °F 80% 30.12 in 2.5 mi WNW 3.5 mph - 0.00 in Snow Light Snow
1:52 AM 3.2 °F -7.8 °F -0.4 °F 85% 30.12 in 3.0 mi NW 5.8 mph - 0.00 in Snow Light Snow
1:56 AM 3.9 °F -6.9 °F -0.9 °F 80% 30.29 in 3.0 mi WNW 5.8 mph - 0.00 in Snow Light Snow
2:07 AM 3.9 °F -6.9 °F -0.9 °F 80% 30.12 in 2.0 mi NW 5.8 mph - 0.00 in Snow Light Snow
2:20 AM 3.9 °F -3.4 °F -0.9 °F 80% 30.11 in 1.8 mi NNW 3.5 mph - 0.00 in Snow Light Snow
2:24 AM 3.9 °F -3.4 °F -0.9 °F 80% 30.11 in 3.0 mi NNW 3.5 mph - 0.00 in Snow Light Snow
2:32 AM 3.9 °F -3.4 °F -0.9 °F 80% 30.11 in 6.0 mi NW 3.5 mph - 0.00 in Snow Light Snow
2:56 AM 3.9 °F -3.4 °F -0.9 °F 80% 30.26 in 2.5 mi NW 3.5 mph - 0.00 in Snow Light Snow
3:07 AM 3.9 °F -5.3 °F -0.9 °F 80% 30.10 in 4.0 mi WNW 4.6 mph - 0.00 in Snow Light Snow
3:56 AM 3.9 °F -6.9 °F -0.9 °F 80% 30.25 in 10.0 mi NW 5.8 mph - 0.00 in   Overcast
4:36 AM 3.9 °F -3.4 °F -0.9 °F 80% 30.07 in 2.5 mi WNW 3.5 mph - 0.00 in Snow Light Snow
4:54 AM 3.2 °F -4.2 °F -0.4 °F 85% 30.07 in 5.0 mi NW 3.5 mph - 0.00 in Snow Light Snow
4:56 AM 3.9 °F -3.4 °F -0.9 °F 80% 30.24 in 6.0 mi NW 3.5 mph - 0.00 in Snow Light Snow
5:43 AM 3.9 °F -5.3 °F -0.9 °F 80% 30.05 in 2.5 mi WNW 4.6 mph - 0.00 in Snow Light Snow
5:56 AM 3.9 °F -5.3 °F -0.9 °F 80% 30.22 in 2.0 mi NW 4.6 mph - 0.00 in Snow Light Snow
6:56 AM 3.9 °F -3.4 °F -0.9 °F 80% 30.20 in 2.0 mi NW 3.5 mph - 0.00 in Snow Light Snow
7:56 AM 5.0 °F -2.1 °F -0.9 °F 76% 30.19 in 3.0 mi WNW 3.5 mph - 0.00 in Snow Light Snow
8:17 AM 5.0 °F -2.1 °F -0.9 °F 76% 30.01 in 1.8 mi NW 3.5 mph - 0.00 in Snow Light Snow
8:51 AM 5.0 °F - -0.4 °F 78% 30.01 in 2.0 mi Calm Calm - 0.00 in Snow Light Snow
8:56 AM 5.0 °F - -0.0 °F 80% 30.18 in 2.0 mi Calm Calm - 0.00 in Snow Light Snow
9:05 AM 5.0 °F -2.1 °F -0.9 °F 76% 30.00 in 3.0 mi WNW 3.5 mph - 0.00 in Snow Light Snow
9:14 AM 6.1 °F -0.9 °F -0.0 °F 76% 30.00 in 4.0 mi NNW 3.5 mph - 0.00 in Snow Light Snow
9:56 AM 6.1 °F - -0.0 °F 76% 30.16 in 4.0 mi Calm Calm - 0.00 in Snow Light Snow
10:01 AM 6.1 °F - -0.0 °F 76% 29.99 in 1.0 mi Calm Calm - 0.00 in Snow Light Snow
10:21 AM 6.1 °F -0.9 °F -0.0 °F 76% 29.98 in 0.8 mi West 3.5 mph - 0.00 in Snow Light Snow
10:32 AM 7.0 °F 0.1 °F -0.0 °F 73% 29.98 in 1.2 mi West 3.5 mph - 0.00 in Snow Light Snow
10:46 AM 7.0 °F - 1.0 °F 77% 29.97 in 2.0 mi Calm Calm - 0.00 in Snow Light Snow
10:56 AM 7.0 °F - 1.0 °F 77% 30.14 in 2.5 mi Calm Calm - 0.00 in Snow Light Snow
11:17 AM 8.1 °F - 1.0 °F 73% 29.95 in 1.2 mi Calm Calm - 0.00 in Snow Light Snow
11:26 AM 8.1 °F - 1.0 °F 73% 29.95 in 3.0 mi Calm Calm - 0.00 in Snow Light Snow
11:56 AM 9.0 °F - -0.0 °F 67% 30.09 in 10.0 mi Calm Calm - 0.00 in   Overcast
12:54 PM 8.6 °F - 1.4 °F 73% 29.88 in 10.0 mi Calm Calm - N/A   Overcast
12:56 PM 9.0 °F - 1.0 °F 70% 30.04 in 10.0 mi Calm Calm - N/A   Overcast
1:30 PM 10.0 °F 1.8 °F 1.9 °F 70% 29.86 in 9.0 mi NNW 4.6 mph - N/A   Overcast
1:56 PM 10.0 °F - 1.9 °F 70% 29.99 in 4.0 mi Calm Calm - 0.00 in Snow Light Snow
2:11 PM 10.0 °F - 1.0 °F 67% 29.82 in 10.0 mi Calm Calm - 0.00 in   Mostly Cloudy
2:56 PM 9.0 °F -0.9 °F 1.9 °F 73% 29.96 in 10.0 mi NNW 5.8 mph - 0.00 in   Overcast
3:40 PM 8.1 °F -5.3 °F 1.9 °F 76% 29.78 in 2.0 mi NNW 9.2 mph - 0.00 in Snow Light Snow
3:51 PM 8.6 °F -3.7 °F 1.4 °F 73% 29.78 in 1.0 mi NNW 8.1 mph - 0.01 in Snow Light Snow
3:56 PM 8.1 °F -4.3 °F 1.9 °F 76% 29.94 in 0.5 mi NNW 8.1 mph - 0.01 in Snow Snow
4:09 PM 7.0 °F -5.7 °F 3.0 °F 84% 29.77 in 0.5 mi NNW 8.1 mph - 0.00 in Fog , Snow Snow
4:28 PM 7.0 °F -3.3 °F 1.9 °F 80% 29.76 in 0.8 mi NNW 5.8 mph - 0.01 in Snow Light Snow
4:34 PM 7.0 °F -4.5 °F 1.9 °F 80% 29.75 in 1.0 mi North 6.9 mph - 0.02 in Snow Light Snow
4:47 PM 7.0 °F -1.7 °F 1.9 °F 80% 29.75 in 0.8 mi NNW 4.6 mph - 0.03 in Snow Light Snow
4:56 PM 7.0 °F -3.3 °F 1.9 °F 80% 29.91 in 0.8 mi NW 5.8 mph - 0.04 in Snow Light Snow
5:04 PM 7.0 °F -1.7 °F 1.9 °F 80% 29.75 in 1.0 mi NNW 4.6 mph - 0.00 in Snow Light Snow
5:27 PM 6.1 °F -4.3 °F 1.9 °F 83% 29.74 in 0.5 mi NW 5.8 mph - 0.02 in Fog , Snow Snow
5:56 PM 6.1 °F -2.8 °F 1.9 °F 83% 29.89 in 2.0 mi NNW 4.6 mph - 0.04 in Snow Light Snow
6:29 PM 5.0 °F -2.1 °F 1.0 °F 84% 29.72 in 6.0 mi NNW 3.5 mph - 0.00 in   Overcast
6:56 PM 5.0 °F -6.9 °F 1.0 °F 84% 29.88 in 5.0 mi North 6.9 mph - 0.00 in   Overcast
7:45 PM 5.0 °F -5.6 °F 1.0 °F 84% 29.71 in 1.8 mi NW 5.8 mph - 0.00 in Snow Light Snow
7:56 PM 5.0 °F -6.9 °F 1.0 °F 84% 29.88 in 1.8 mi NW 6.9 mph - 0.00 in Snow Light Snow
8:03 PM 5.0 °F -5.6 °F 1.0 °F 84% 29.72 in 3.0 mi WNW 5.8 mph - 0.01 in Snow Light Snow
8:21 PM 5.0 °F -5.6 °F 1.0 °F 84% 29.71 in 1.8 mi NW 5.8 mph - 0.01 in Snow Light Snow
8:32 PM 5.0 °F -4.1 °F 1.0 °F 84% 29.71 in 0.8 mi WNW 4.6 mph - 0.01 in Snow Light Snow
8:47 PM 5.0 °F -2.1 °F 1.0 °F 84% 29.71 in 2.0 mi West 3.5 mph - 0.02 in Snow Light Snow
8:54 PM 5.0 °F -2.1 °F -0.4 °F 78% 29.70 in 5.0 mi WNW 3.5 mph - 0.02 in Snow Light Snow
8:55 PM 3.9 °F -3.4 °F -0.0 °F 84% 29.87 in 6.0 mi WNW 3.5 mph - 0.02 in Snow Light Snow
9:43 PM 3.0 °F - -0.9 °F 84% 29.69 in 4.0 mi Calm Calm - 0.00 in Snow Light Snow
9:51 PM 1.4 °F - -2.2 °F 85% 29.70 in 8.0 mi Calm Calm - 0.00 in   Scattered Clouds
9:56 PM 1.9 °F -5.6 °F -2.0 °F 83% 29.88 in 9.0 mi SW 3.5 mph - 0.00 in   Scattered Clouds
10:56 PM -0.0 °F -13.0 °F -4.0 °F 83% 29.83 in 10.0 mi ESE 6.9 mph - N/A   Clear
11:56 PM 3.0 °F - -0.9 °F 84% 29.83 in 10.0 mi Calm Calm - N/A   Overcast